Vertical_Velocity
2 -2 0 1 -0 -1 -1 0 -1 0 -2 3 -1 -2 0 1 -2 -3 -1 -3 -1 -3 2 -1 -4 -4 -1 -2 -5 -3 -3 -1 -3 1 -6 -3 -3 4 1 1 -3 1 -0 2 3 0 1
-0 1 -1 0 3 -1 1 -1 1 0 0 4 2 1 -2 -4 0 -1 -0 -4 -0 -3 1 -1 -2 -2 -0 0 -1 -1 -1 -6 -8 3 0 6 4 2 1 -1 2 -1 2 -1 -4 -5 -2
-1 0 -1 2 -5 3 0 -1 0 -2 0 2 7 2 -1 2 -3 -1 -0 2 -0 -3 -5 1 1 -3 -2 -22 1 1 -4 1 -1 -5 -4 3 6 -1 3 -2 4 -0 -2 -3 -4 -6 -3
-2 -3 1 -1 3 3 -1 -0 2 -0 -2 -0 -3 0 0 1 -1 -1 -2 -1 -0 -3 1 -3 2 1 -16 -1 -4 4 0 -5 -4 -5 -2 -4 -3 -3 2 -1 -5 2 2 -1 -8 2 1
3 -3 -0 1 -6 3 1 -2 1 1 2 -2 2 -1 2 0 -4 1 -3 -3 -2 -3 -2 -4 2 5 -12 -1 -6 4 1 -2 19 10 -7 -4 -2 -1 1 1 -3 0 -1 1 -5 -1 -1
-2 -2 1 1 -2 1 -0 2 -0 2 1 -0 0 -0 3 -3 6 2 -0 -3 1 -4 1 -3 4 6 -4 -13 1 -5 -2 -4 -0 -0 6 8 1 1 -0 -2 -4 -0 1 -2 -0 -6 -0
-1 -5 -0 -3 0 3 -0 -0 3 -2 2 1 0 -2 -2 2 -1 2 -4 3 -6 -3 4 -17 8 -3 6 5 6 -2 -3 0 -3 5 1 -2 -0 -2 -6 -2 -2 1 2 1 -3 -4 3
2 -0 -4 3 -4 -0 1 -3 4 1 0 2 5 -3 -0 -2 2 -1 3 1 -7 4 -9 -2 -9 -2 -17 8 17 -9 1 8 6 -1 3 0 -3 -9 1 1 0 0 1 -4 -5 -1 -5
3 -2 -2 3 2 0 2 1 -3 3 0 2 3 2 2 -5 0 1 3 4 -10 8 3 -8 -18 -4 -9 12 -6 -8 7 -3 1 3 -0 1 -15 -0 1 0 2 -1 0 -1 1 -2 -3
-0 4 -3 -2 1 -0 2 1 0 2 3 1 0 1 0 -1 1 -2 -4 4 -2 -7 0 -14 -1 -16 1 3 -0 -17 -2 -12 6 -3 1 -0 -10 4 2 0 2 2 -0 0 -0 -2 -4
-1 -2 0 -2 -2 0 3 3 2 2 3 2 3 -0 -3 -5 3 -2 0 1 6 -6 1 -11 1 14 2 -6 2 -10 2 26 -2 -3 8 -21 0 1 2 -6 3 -8 -1 1 1 1 3
-0 -2 -0 -0 1 -2 -1 2 1 2 2 2 2 3 10 -6 5 -0 1 4 0 -1 -13 -3 2 -1 5 7 -2 4 -0 5 4 3 -1 -5 -8 3 -4 -2 -0 1 -3 -1 1 0 1
-1 0 1 -1 -0 0 1 -2 4 3 5 2 1 1 4 2 -17 2 5 -3 -1 3 -5 -4 -2 1 0 1 5 3 -0 2 -4 1 1 -1 -6 -2 -0 2 2 -1 -1 -4 -4 -1 -8
0 1 -0 -0 1 -1 -0 4 1 1 6 2 -1 0 0 1 7 3 8 -1 7 -9 -5 -3 0 3 -0 -1 -1 -3 3 2 4 5 1 1 -7 2 -4 -6 -7 -3 -6 -4 -1 0 -3
1 -0 -3 1 -1 -1 2 0 4 5 6 2 9 -1 -7 -1 6 20 3 6 -13 -4 -2 3 4 5 0 -0 -4 4 1 -1 -4 -3 -3 3 -3 -5 -1 -0 -3 -5 6 -9 1 -1 -1
-1 -1 1 -3 -0 2 1 0 2 8 9 2 6 3 -9 -5 25 14 9 -11 -2 -1 3 0 3 4 -1 -1 4 2 -0 -5 -5 -1 1 -0 -5 -1 4 1 2 -6 -1 -9 -3 -1 -0
-0 -1 2 3 -0 -2 -1 -0 -5 6 20 3 15 12 -1 -10 38 36 -5 -10 -2 -6 9 7 -0 -0 -3 -4 -3 -1 -3 -7 -1 3 -2 -1 -6 -15 0 -0 -3 1 2 1 -3 -2 -3
0 1 2 4 -2 -3 -7 -3 -5 7 32 4 11 9 2 2 5 -1 -1 -17 -2 -2 -3 1 5 0 -0 -1 -0 1 -3 -1 4 -3 -1 -0 -3 -1 -3 -2 -3 -1 -2 -2 -4 -5 -1
-1 -0 1 -0 1 -1 -5 -5 -12 4 9 -0 5 0 58 -28 -2 2 1 -4 -2 7 -4 3 0 -2 -1 -1 -5 -2 -0 -3 -0 -1 -1 -4 0 -1 -4 -7 -0 0 1 -1 -1 -1 -2
3 2 1 -1 2 3 -7 2 -9 -0 21 16 -6 -1 10 51 9 -6 1 -4 3 -4 -2 0 -3 -3 -2 -1 -1 -3 1 1 -0 -1 0 -6 -0 -3 -2 -3 1 -1 -0 -0 -1 -1 -2
2 2 1 -2 -3 5 -2 3 -2 -2 15 7 3 -4 -14 -4 8 0 5 -1 1 3 2 5 3 -2 -4 -2 0 -0 1 1 -0 2 -0 -6 -1 -1 0 -1 -1 0 0 -0 1 -2 2
3 2 0 2 -2 3 2 -2 1 -1 -6 0 -6 2 14 0 2 1 1 0 -5 -1 -4 2 -4 0 -0 -4 -8 -2 -1 -1 -5 2 -0 1 0 -1 -1 -0 -0 -0 0 0 -0 0 0
3 5 1 2 3 -3 0 1 -1 -2 -7 -6 7 1 -5 -1 3 2 -6 -6 -8 3 1 -12 -7 -1 4 -8 -9 -8 -10 -4 -5 -7 -0 -2 -1 -1 -3 -0 1 3 -6 -1 -0 0 -4
4 2 -0 -1 1 3 -2 4 -2 -1 -2 -9 8 1 5 1 1 -9 -1 -2 -1 -4 -3 0 -1 -3 -9 -7 17 15 6 3 2 3 -3 -1 1 -1 -0 -0 2 -10 -0 -3 -2 0 1
4 -0 1 -3 -3 2 4 1 1 -2 -4 -9 -5 2 -1 -0 -6 8 6 -3 5 6 -2 -2 -0 0 -1 -5 -3 0 1 -0 -3 -1 1 0 -1 -1 -3 -1 -3 2 -1 -2 -7 -2 -2
2 -3 0 -0 0 -1 6 -4 5 2 -2 -6 -5 0 -1 -2 -3 -7 -2 -6 -4 0 0 3 -3 4 4 -2 0 -1 -1 -3 4 5 2 4 -1 -4 -1 0 -0 -1 0 -2 3 -4 -2
7 -0 -0 -1 -2 2 1 -1 3 3 2 1 -1 -4 2 -3 -2 0 -3 -11 -3 0 -2 -0 1 0 -0 0 1 -1 -1 -8 -1 -1 0 2 1 -2 0 -0 2 1 2 3 -1 -16 1
6 3 1 1 1 -3 -1 2 5 4 2 -4 6 3 7 4 6 1 -5 -10 6 0 -4 -1 -2 3 -0 -0 -0 -2 -0 0 -3 -1 -4 -5 -3 -1 1 2 -1 2 -1 -1 -6 7 -1
4 3 3 1 -4 -4 -2 3 1 -3 -1 2 5 4 9 -9 6 0 18 16 1 -7 -7 10 -9 -2 -5 -2 -1 -1 -1 -1 -1 -0 1 -6 -4 -7 -3 -1 1 3 -2 1 -3 -2 3
Height
1517 1519 1521 1521 1523 1525 1527 1528 1530 1532 1533 1534 1535 1536 1537 1537 1538 1538 1537 1537 1536 1535 1533 1531 1530 1528 1526 1526 1522 1521 1521 1522 1522 1521 1521 1522 1520 1519 1516 1514 1511 1508 1508 1507 1507 1507 1508
1512 1513 1515 1516 1517 1518 1520 1522 1524 1526 1528 1529 1531 1532 1533 1534 1535 1535 1535 1535 1535 1534 1532 1531 1529 1528 1526 1527 1520 1520 1519 1519 1520 1522 1521 1521 1520 1520 1517 1514 1513 1508 1506 1505 1504 1504 1506
1507 1507 1508 1510 1511 1513 1514 1517 1517 1520 1523 1524 1526 1528 1529 1530 1531 1532 1533 1533 1532 1531 1531 1530 1528 1526 1525 1521 1522 1519 1518 1519 1518 1520 1519 1520 1520 1520 1519 1515 1513 1509 1509 1504 1501 1500 1502
1500 1502 1503 1505 1505 1506 1508 1511 1513 1514 1516 1519 1522 1523 1525 1527 1528 1528 1529 1530 1529 1528 1529 1528 1527 1524 1519 1517 1516 1518 1517 1517 1517 1518 1519 1518 1518 1519 1519 1516 1512 1511 1510 1512 1491 1489 1498
1495 1496 1499 1500 1501 1501 1502 1504 1506 1509 1511 1514 1516 1518 1520 1523 1525 1525 1525 1526 1527 1525 1526 1525 1526 1525 1515 1513 1513 1515 1516 1517 1517 1517 1517 1518 1518 1517 1516 1519 1521 1511 1519 1509 1502 1492 1495
1490 1492 1493 1495 1495 1497 1498 1499 1501 1503 1505 1508 1511 1514 1514 1518 1521 1522 1522 1523 1524 1524 1522 1524 1523 1527 1514 1510 1509 1510 1514 1516 1516 1516 1517 1517 1517 1516 1516 1521 1530 1514 1510 1508 1507 1499 1496
1485 1487 1488 1489 1491 1492 1492 1496 1497 1499 1501 1503 1506 1508 1512 1512 1516 1519 1520 1522 1525 1522 1517 1514 1515 1512 1508 1510 1508 1509 1511 1514 1516 1517 1517 1514 1519 1519 1511 1510 1507 1506 1510 1510 1503 1495 1495
1481 1482 1484 1484 1485 1487 1489 1491 1494 1495 1498 1501 1502 1504 1508 1508 1510 1513 1518 1520 1522 1524 1515 1510 1508 1506 1507 1507 1508 1507 1511 1513 1512 1514 1512 1515 1513 1502 1501 1501 1502 1505 1508 1509 1501 1494 1497
1479 1478 1479 1481 1480 1482 1484 1485 1489 1492 1495 1497 1499 1501 1502 1504 1507 1511 1513 1517 1521 1520 1519 1502 1500 1496 1499 1503 1501 1503 1506 1507 1508 1510 1508 1509 1501 1491 1496 1499 1500 1501 1504 1505 1505 1499 1497
1474 1475 1475 1476 1478 1477 1479 1482 1483 1488 1490 1493 1496 1499 1499 1502 1508 1508 1511 1514 1520 1520 1524 1497 1490 1482 1486 1495 1493 1496 1499 1503 1503 1504 1503 1499 1493 1491 1493 1495 1497 1504 1495 1497 1500 1506 1518
1468 1471 1471 1472 1472 1474 1475 1477 1479 1483 1486 1489 1494 1496 1497 1500 1504 1508 1512 1514 1518 1522 1521 1483 1482 1481 1482 1487 1489 1487 1490 1496 1497 1498 1500 1494 1488 1489 1490 1489 1491 1496 1494 1497 1501 1508 1510
1463 1464 1467 1468 1468 1469 1471 1472 1474 1477 1480 1484 1489 1493 1495 1497 1500 1508 1512 1514 1520 1524 1512 1484 1480 1481 1483 1484 1486 1487 1490 1493 1496 1498 1496 1492 1488 1487 1486 1487 1486 1489 1495 1498 1499 1506 1523
1458 1460 1460 1462 1463 1464 1465 1467 1468 1472 1475 1478 1483 1487 1489 1492 1494 1506 1511 1515 1525 1511 1483 1477 1477 1479 1480 1482 1485 1486 1490 1494 1500 1504 1501 1487 1483 1482 1484 1489 1488 1491 1504 1525 1519 1521 1509
1453 1454 1455 1456 1457 1458 1459 1460 1461 1464 1468 1473 1476 1480 1482 1486 1494 1500 1507 1513 1512 1484 1481 1465 1472 1476 1480 1481 1481 1485 1488 1494 1491 1495 1498 1494 1496 1478 1475 1483 1485 1491 1499 1516 1509 1506 1501
1446 1448 1449 1450 1450 1452 1451 1451 1453 1455 1461 1467 1471 1473 1473 1478 1490 1495 1499 1503 1492 1476 1471 1471 1474 1476 1480 1479 1480 1483 1483 1485 1485 1486 1501 1491 1480 1467 1466 1476 1481 1485 1493 1488 1497 1493 1504
1439 1441 1442 1443 1443 1443 1441 1441 1443 1446 1452 1459 1464 1467 1460 1472 1485 1490 1493 1485 1475 1468 1466 1471 1472 1470 1478 1475 1481 1481 1481 1472 1478 1479 1481 1487 1495 1474 1471 1475 1477 1480 1483 1501 1501 1505 1502
1433 1434 1436 1436 1434 1434 1432 1430 1430 1433 1443 1449 1456 1459 1446 1464 1475 1481 1476 1460 1462 1466 1469 1472 1466 1469 1467 1472 1476 1476 1474 1471 1469 1474 1472 1481 1493 1486 1475 1475 1479 1485 1487 1489 1492 1500 1512
1425 1427 1428 1428 1427 1426 1423 1420 1417 1418 1430 1436 1442 1442 1439 1451 1466 1464 1457 1445 1459 1456 1464 1465 1467 1464 1465 1464 1471 1475 1475 1470 1468 1471 1476 1478 1491 1497 1483 1470 1471 1474 1480 1484 1504 1497 1494
1418 1421 1421 1421 1421 1419 1416 1414 1405 1403 1408 1416 1424 1431 1436 1435 1441 1444 1446 1449 1452 1455 1457 1458 1460 1459 1461 1467 1476 1475 1470 1469 1472 1474 1476 1478 1490 1494 1483 1479 1473 1473 1479 1483 1489 1500 1503
1410 1414 1415 1415 1415 1413 1412 1409 1404 1394 1396 1404 1413 1424 1428 1424 1423 1426 1437 1438 1444 1450 1452 1452 1452 1453 1461 1469 1470 1478 1472 1470 1471 1474 1474 1477 1484 1486 1494 1495 1491 1484 1484 1489 1493 1512 1507
1405 1406 1408 1410 1408 1408 1409 1406 1402 1398 1396 1396 1400 1400 1400 1411 1416 1422 1428 1432 1438 1442 1446 1444 1446 1450 1456 1468 1471 1475 1472 1472 1472 1474 1479 1482 1492 1490 1485 1486 1491 1497 1493 1497 1497 1497 1499
1398 1400 1402 1405 1404 1404 1404 1403 1402 1400 1398 1397 1396 1396 1398 1399 1416 1422 1424 1421 1431 1439 1435 1438 1443 1447 1454 1460 1458 1467 1473 1472 1472 1475 1478 1481 1487 1495 1501 1489 1487 1505 1504 1506 1500 1494 1498
1392 1395 1396 1399 1399 1400 1400 1401 1400 1398 1398 1396 1395 1396 1395 1405 1410 1416 1415 1418 1424 1431 1430 1434 1439 1445 1450 1451 1456 1458 1462 1462 1466 1472 1477 1479 1482 1489 1489 1487 1485 1489 1496 1494 1488 1488 1489
1386 1389 1391 1393 1394 1396 1397 1398 1398 1398 1398 1398 1394 1396 1399 1407 1408 1407 1413 1416 1421 1424 1428 1431 1435 1441 1447 1451 1453 1459 1462 1463 1464 1465 1468 1472 1477 1478 1487 1487 1487 1487 1482 1484 1485 1490 1494
1382 1384 1386 1388 1389 1391 1392 1394 1396 1396 1396 1397 1396 1397 1397 1402 1405 1409 1412 1413 1418 1424 1431 1431 1437 1441 1446 1448 1457 1462 1464 1466 1466 1467 1468 1470 1473 1480 1482 1483 1487 1484 1480 1481 1487 1491 1492
1377 1381 1382 1384 1386 1387 1389 1391 1392 1393 1394 1395 1396 1397 1398 1397 1401 1403 1409 1413 1419 1429 1434 1438 1444 1444 1446 1449 1455 1456 1461 1457 1461 1460 1463 1466 1468 1479 1478 1476 1478 1476 1474 1478 1482 1489 1485
1374 1377 1379 1380 1382 1383 1386 1388 1390 1390 1392 1394 1395 1396 1398 1400 1400 1402 1406 1412 1419 1427 1435 1441 1440 1443 1446 1451 1452 1449 1451 1445 1455 1456 1461 1466 1469 1476 1481 1480 1479 1474 1476 1478 1491 1491 1482
1371 1374 1376 1378 1379 1381 1384 1386 1387 1388 1389 1390 1392 1394 1397 1398 1401 1405 1408 1414 1421 1425 1431 1435 1442 1444 1448 1452 1449 1447 1448 1442 1447 1448 1453 1462 1473 1477 1477 1474 1476 1477 1479 1484 1484 1481 1484
1368 1372 1375 1377 1379 1381 1383 1384 1384 1387 1388 1389 1389 1391 1394 1398 1402 1407 1410 1417 1421 1423 1425 1432 1433 1435 1438 1444 1442 1442 1447 1445 1446 1462 1448 1464 1459 1470 1476 1479 1480 1478 1479 1480 1481 1483 1485